Colorado Springs, CO

10:42 AM MDT on August 20, 2017 (GMT -0600)
City Of Colorado Springs Municipal

Weather History for KCOS - February, 2013

Change the Weather History Date:

Thursday, February 14, 2013

  Actual Average Record
Temperature  
Mean Temperature 29 °F 32 °F  
Max Temperature 39 °F 44 °F 70 °F (1957)
Min Temperature 18 °F 19 °F -9 °F (1895)
Degree Days  
Heating Degree Days 36 33  
Month to date heating degree days 455 474  
Since 1 July heating degree days 3808 4117  
Cooling Degree Days 0 0  
Month to date cooling degree days 0 0  
Year to date cooling degree days 0 0  
Moisture  
Dew Point 13 °F    
Average Humidity 54    
Maximum Humidity 68    
Minimum Humidity 40    
Precipitation  
Precipitation T in 0.01 in 0.26 in (1987)
Month to date precipitation 0.20 0.14  
Year to date precipitation 0.38 0.46  
Snow  
Snow T in 0.20 in 3.30 in (1942)
Month to date snowfall 2.5 2.5  
Since 1 July snowfall 12.0 21.6  
Snow Depth 0.00 in    
Sea Level Pressure  
Sea Level Pressure 30.20 in    
Wind  
Wind Speed 11 mph (East)    
Max Wind Speed 29 mph    
Max Gust Speed 33 mph    
Visibility 10 miles    
Events Snow    
T = Trace of Precipitation, MM = Missing Value Source: NWS Daily Summary

Daily Weather History Graph

Daily Weather History Graph

Search for Another Location

Airport or City:

Trip Planner

Search our weather history database for the weather conditions in past years. The results will help you decide how hot, cold, wet, or windy it might be!

Date:

Astronomy

Feb. 14, 2013 Rise Set
Actual Time 6:50 AM MST 5:35 PM MST
Civil Twilight 6:23 AM MST 6:02 PM MST
Nautical Twilight 5:52 AM MST 6:34 PM MST
Astronomical Twilight 5:21 AM MST 7:05 PM MST
Moon 8:57 AM MST (2/14) 10:37 PM MST (2/14)
Length of Visible Light 11h 39m
Length of Day
10h 44m
Waxing Crescent, 22% of the Moon is Illuminated
Feb 14
Waxing Crescent
Feb 17
First Quarter
Feb 25
Full
Mar 4
Last Quarter
Mar 11
New

Hourly Weather History & Observations

Time (MST) Temp. Windchill Dew Point Humidity Pressure Visibility Wind Dir Wind Speed Gust Speed Precip Events Conditions
12:54 AM 30.9 °F 27.5 °F 10.0 °F 42% 30.03 in 10.0 mi NNE 3.5 mph - N/A   Clear
1:54 AM 30.9 °F 24.3 °F 10.9 °F 43% 30.03 in 10.0 mi South 6.9 mph - N/A   Clear
2:54 AM 28.0 °F 20.8 °F 10.9 °F 49% 30.03 in 10.0 mi ESE 6.9 mph - N/A   Clear
3:54 AM 27.0 °F 18.0 °F 10.9 °F 51% 30.04 in 10.0 mi East 9.2 mph - N/A   Clear
4:54 AM 26.1 °F 13.6 °F 12.0 °F 55% 30.06 in 10.0 mi South 16.1 mph - N/A   Clear
5:26 AM 26.6 °F 13.1 °F 12.2 °F 55% 30.02 in 10.0 mi SE 19.6 mph 24.2 mph N/A   Clear
5:54 AM 28.0 °F 20.8 °F 12.0 °F 51% 30.11 in 10.0 mi Variable 6.9 mph - N/A   Partly Cloudy
6:54 AM 26.1 °F 18.4 °F 12.9 °F 58% 30.15 in 10.0 mi East 6.9 mph - N/A   Scattered Clouds
7:54 AM 27.0 °F 17.3 °F 14.0 °F 58% 30.16 in 10.0 mi SSE 10.4 mph - N/A   Partly Cloudy
8:54 AM 30.9 °F 21.2 °F 18.0 °F 59% 30.16 in 10.0 mi SSW 12.7 mph - N/A   Scattered Clouds
9:54 AM 33.1 °F 26.1 °F 19.0 °F 56% 30.17 in 10.0 mi South 8.1 mph - N/A   Scattered Clouds
10:54 AM 36.0 °F 27.5 °F 18.0 °F 48% 30.16 in 10.0 mi South 12.7 mph - N/A   Scattered Clouds
11:54 AM 37.9 °F - 16.0 °F 41% 30.16 in 10.0 mi Calm Calm - N/A   Mostly Cloudy
12:54 PM 37.0 °F - 18.0 °F 46% 30.15 in 10.0 mi Calm Calm - 0.00 in Snow Light Snow
1:22 PM 32.0 °F 19.5 °F 21.2 °F 64% 30.11 in 6.0 mi NE 21.9 mph 32.2 mph 0.00 in Snow Light Snow
1:54 PM 32.0 °F 18.4 °F 17.1 °F 54% 30.21 in 10.0 mi North 26.5 mph 29.9 mph 0.00 in   Mostly Cloudy
2:54 PM 28.9 °F 14.5 °F 12.0 °F 49% 30.26 in 10.0 mi North 25.3 mph 33.4 mph N/A   Scattered Clouds
3:54 PM 27.0 °F 12.2 °F 10.9 °F 51% 30.30 in 10.0 mi North 24.2 mph 32.2 mph N/A   Scattered Clouds
4:54 PM 26.1 °F 12.3 °F 12.0 °F 55% 30.32 in 10.0 mi NNE 19.6 mph - N/A   Scattered Clouds
5:54 PM 23.0 °F 9.2 °F 10.9 °F 60% 30.34 in 10.0 mi North 17.3 mph - N/A   Scattered Clouds
6:54 PM 21.9 °F 10.4 °F 12.0 °F 66% 30.38 in 10.0 mi NNE 11.5 mph - N/A   Mostly Cloudy
7:54 PM 23.0 °F 12.4 °F 10.9 °F 60% 30.38 in 10.0 mi North 10.4 mph - N/A   Overcast
8:54 PM 21.9 °F 17.2 °F 9.0 °F 58% 30.39 in 10.0 mi North 3.5 mph - N/A   Overcast
9:54 PM 23.0 °F - 9.0 °F 55% 30.39 in 10.0 mi Calm Calm - 0.00 in Snow Light Snow
10:54 PM 21.9 °F 11.7 °F 10.0 °F 60% 30.38 in 9.0 mi South 9.2 mph - 0.00 in Snow Light Snow
11:26 PM 19.4 °F 7.2 °F 10.4 °F 68% 30.23 in 10.0 mi SSE 11.5 mph - 0.00 in   Scattered Clouds
11:54 PM 18.0 °F 7.7 °F 10.0 °F 71% 30.36 in 10.0 mi SSE 8.1 mph - 0.00 in   Scattered Clouds